Year,Month,Day,Hour,Minute,Value (Times are PST for barometer in hPa)
2022,12,27,00,00,978.50
2022,12,27,00,01,978.50
2022,12,27,00,02,978.43
2022,12,27,00,03,978.36
2022,12,27,00,04,978.43
2022,12,27,00,05,978.50
2022,12,27,00,06,978.57
2022,12,27,00,07,978.50
2022,12,27,00,08,978.43
2022,12,27,00,09,978.40
2022,12,27,00,10,978.29
2022,12,27,00,11,978.36
2022,12,27,00,12,978.43
2022,12,27,00,13,978.36
2022,12,27,00,14,978.40
2022,12,27,00,15,978.40
2022,12,27,00,16,978.29
2022,12,27,00,17,978.23
2022,12,27,00,18,978.16
2022,12,27,00,19,978.19
2022,12,27,00,20,978.16
2022,12,27,00,21,978.26
2022,12,27,00,22,978.33
2022,12,27,00,23,978.29
2022,12,27,00,24,978.26
2022,12,27,00,25,978.19
2022,12,27,00,26,978.16
2022,12,27,00,27,978.16
2022,12,27,00,28,978.16
2022,12,27,00,29,978.16
2022,12,27,00,30,978.12
2022,12,27,00,31,978.09
2022,12,27,00,32,978.09
2022,12,27,00,33,978.12
2022,12,27,00,34,978.12
2022,12,27,00,35,978.12
2022,12,27,00,36,978.12
2022,12,27,00,37,978.06
2022,12,27,00,38,977.99
2022,12,27,00,39,978.06
2022,12,27,00,40,978.02
2022,12,27,00,41,978.02
2022,12,27,00,42,978.09
2022,12,27,00,43,978.09
2022,12,27,00,44,978.09
2022,12,27,00,45,978.01
2022,12,27,00,46,977.89
2022,12,27,00,47,977.82
2022,12,27,00,48,977.74
2022,12,27,00,49,977.65
2022,12,27,00,50,977.58
2022,12,27,00,51,977.48
2022,12,27,00,52,977.48
2022,12,27,00,53,977.45
2022,12,27,00,54,977.45
2022,12,27,00,55,977.38
2022,12,27,00,56,977.41
2022,12,27,00,57,977.45
2022,12,27,00,58,977.48
2022,12,27,00,59,977.45
2022,12,27,01,00,977.45
2022,12,27,01,01,977.52
2022,12,27,01,02,977.45
2022,12,27,01,03,977.41
2022,12,27,01,04,977.35
2022,12,27,01,05,977.35
2022,12,27,01,06,977.28
2022,12,27,01,07,977.24
2022,12,27,01,08,977.23
2022,12,27,01,09,977.08
2022,12,27,01,10,977.08
2022,12,27,01,11,977.01
2022,12,27,01,12,977.11
2022,12,27,01,13,977.21
2022,12,27,01,14,977.24
2022,12,27,01,15,977.14
2022,12,27,01,16,977.11
2022,12,27,01,17,977.04
2022,12,27,01,18,977.11
2022,12,27,01,19,977.21
2022,12,27,01,20,977.21
2022,12,27,01,21,977.18
2022,12,27,01,22,977.28
2022,12,27,01,23,977.28
2022,12,27,01,24,977.24
2022,12,27,01,25,977.14
2022,12,27,01,26,977.04
2022,12,27,01,27,977.01
2022,12,27,01,28,977.01
2022,12,27,01,29,976.94
2022,12,27,01,30,977.01
2022,12,27,01,31,977.01
2022,12,27,01,32,977.08
2022,12,27,01,33,976.97
2022,12,27,01,34,976.94
2022,12,27,01,35,976.94
2022,12,27,01,36,976.97
2022,12,27,01,37,977.01
2022,12,27,01,38,977.08
2022,12,27,01,39,977.04
2022,12,27,01,40,976.96
2022,12,27,01,41,976.74
2022,12,27,01,42,976.57
2022,12,27,01,43,976.47
2022,12,27,01,44,976.40
2022,12,27,01,45,976.43
2022,12,27,01,46,976.33
2022,12,27,01,47,976.33
2022,12,27,01,48,976.40
2022,12,27,01,49,976.50
2022,12,27,01,50,976.46
2022,12,27,01,51,976.33
2022,12,27,01,52,976.26
2022,12,27,01,53,976.23
2022,12,27,01,54,976.16
2022,12,27,01,55,976.19
2022,12,27,01,56,976.19
2022,12,27,01,57,976.16
2022,12,27,01,58,976.09
2022,12,27,01,59,976.06
2022,12,27,02,00,976.03
2022,12,27,02,01,975.96
2022,12,27,02,02,975.90
2022,12,27,02,03,975.99
2022,12,27,02,04,976.06
2022,12,27,02,05,976.06
2022,12,27,02,06,976.09
2022,12,27,02,07,976.03
2022,12,27,02,08,976.03
2022,12,27,02,09,975.96
2022,12,27,02,10,975.82
2022,12,27,02,11,975.79
2022,12,27,02,12,975.75
2022,12,27,02,13,975.72
2022,12,27,02,14,975.69
2022,12,27,02,15,975.60
2022,12,27,02,16,975.75
2022,12,27,02,17,975.79
2022,12,27,02,18,975.96
2022,12,27,02,19,975.99
2022,12,27,02,20,975.96
2022,12,27,02,21,975.99
2022,12,27,02,22,976.03
2022,12,27,02,23,975.99
2022,12,27,02,24,975.92
2022,12,27,02,25,975.89
2022,12,27,02,26,975.89
2022,12,27,02,27,975.92
2022,12,27,02,28,975.86
2022,12,27,02,29,975.89
2022,12,27,02,30,975.82
2022,12,27,02,31,975.86
2022,12,27,02,32,975.92
2022,12,27,02,33,975.89
2022,12,27,02,34,975.79
2022,12,27,02,35,975.79
2022,12,27,02,36,975.75
2022,12,27,02,37,975.75
2022,12,27,02,38,975.69
2022,12,27,02,39,975.52
2022,12,27,02,40,975.45
2022,12,27,02,41,975.38
2022,12,27,02,42,975.35
2022,12,27,02,43,975.38
2022,12,27,02,44,975.31
2022,12,27,02,45,975.35
2022,12,27,02,46,975.31
2022,12,27,02,47,975.28
2022,12,27,02,48,975.14
2022,12,27,02,49,975.14
2022,12,27,02,50,975.01
2022,12,27,02,51,975.01
2022,12,27,02,52,974.91
2022,12,27,02,53,974.94
2022,12,27,02,54,974.91
2022,12,27,02,55,974.94
2022,12,27,02,56,974.91
2022,12,27,02,57,974.84
2022,12,27,02,58,974.84
2022,12,27,02,59,974.87
2022,12,27,03,00,974.84
2022,12,27,03,01,974.74
2022,12,27,03,02,974.70
2022,12,27,03,03,974.70
2022,12,27,03,04,974.70
2022,12,27,03,05,974.67
2022,12,27,03,06,974.70
2022,12,27,03,07,974.70
2022,12,27,03,08,974.70
2022,12,27,03,09,974.57
2022,12,27,03,10,974.57
2022,12,27,03,11,974.54
2022,12,27,03,12,974.40
2022,12,27,03,13,974.43
2022,12,27,03,14,974.37
2022,12,27,03,15,974.40
2022,12,27,03,16,974.40
2022,12,27,03,17,974.54
2022,12,27,03,18,974.50
2022,12,27,03,19,974.60
2022,12,27,03,20,974.64
2022,12,27,03,21,974.57
2022,12,27,03,22,974.54
2022,12,27,03,23,974.43
2022,12,27,03,24,974.40
2022,12,27,03,25,974.33
2022,12,27,03,26,974.23
2022,12,27,03,27,974.16
2022,12,27,03,28,974.10
2022,12,27,03,29,974.13
2022,12,27,03,30,974.13
2022,12,27,03,31,974.13
2022,12,27,03,32,974.16
2022,12,27,03,33,974.20
2022,12,27,03,34,974.20
2022,12,27,03,35,974.13
2022,12,27,03,36,974.06
2022,12,27,03,37,974.06
2022,12,27,03,38,973.99
2022,12,27,03,39,973.93
2022,12,27,03,40,973.86
2022,12,27,03,41,973.89
2022,12,27,03,42,973.76
2022,12,27,03,43,973.72
2022,12,27,03,44,973.76
2022,12,27,03,45,973.76
2022,12,27,03,46,973.82
2022,12,27,03,47,973.89
2022,12,27,03,48,973.89
2022,12,27,03,49,973.89
2022,12,27,03,50,973.89
2022,12,27,03,51,973.93
2022,12,27,03,52,973.93
2022,12,27,03,53,973.99
2022,12,27,03,54,974.06
2022,12,27,03,55,974.06
2022,12,27,03,56,974.10
2022,12,27,03,57,973.99
2022,12,27,03,58,973.96
2022,12,27,03,59,973.82
2022,12,27,04,00,973.86
2022,12,27,04,01,973.76
2022,12,27,04,02,973.72
2022,12,27,04,03,973.76
2022,12,27,04,04,973.76
2022,12,27,04,05,973.69
2022,12,27,04,06,973.59
2022,12,27,04,07,973.59
2022,12,27,04,08,973.59
2022,12,27,04,09,973.72
2022,12,27,04,10,973.59
2022,12,27,04,11,973.65
2022,12,27,04,12,973.62
2022,12,27,04,13,973.62
2022,12,27,04,14,973.55
2022,12,27,04,15,973.59
2022,12,27,04,16,973.62
2022,12,27,04,17,973.62
2022,12,27,04,18,973.55
2022,12,27,04,19,973.52
2022,12,27,04,20,973.38
2022,12,27,04,21,973.32
2022,12,27,04,22,973.28
2022,12,27,04,23,973.28
2022,12,27,04,24,973.25
2022,12,27,04,25,973.25
2022,12,27,04,26,973.21
2022,12,27,04,27,973.21
2022,12,27,04,28,973.15
2022,12,27,04,29,973.18
2022,12,27,04,30,973.18
2022,12,27,04,31,973.08
2022,12,27,04,32,973.11
2022,12,27,04,33,973.01
2022,12,27,04,34,972.98
2022,12,27,04,35,972.97
2022,12,27,04,36,972.88
2022,12,27,04,37,972.77
2022,12,27,04,38,972.81
2022,12,27,04,39,972.88
2022,12,27,04,40,972.84
2022,12,27,04,41,972.74
2022,12,27,04,42,972.71
2022,12,27,04,43,972.61
2022,12,27,04,44,972.61
2022,12,27,04,45,972.71
2022,12,27,04,46,972.77
2022,12,27,04,47,972.81
2022,12,27,04,48,972.71
2022,12,27,04,49,972.61
2022,12,27,04,50,972.47
2022,12,27,04,51,972.37
2022,12,27,04,52,972.27
2022,12,27,04,53,972.30
2022,12,27,04,54,972.41
2022,12,27,04,55,972.50
2022,12,27,04,56,972.54
2022,12,27,04,57,972.64
2022,12,27,04,58,972.67
2022,12,27,04,59,972.57
2022,12,27,05,00,972.67
2022,12,27,05,01,972.67
2022,12,27,05,02,972.74
2022,12,27,05,03,972.74
2022,12,27,05,04,972.71
2022,12,27,05,05,972.61
2022,12,27,05,06,972.41
2022,12,27,05,07,972.30
2022,12,27,05,08,972.30
2022,12,27,05,09,972.33
2022,12,27,05,10,972.30
2022,12,27,05,11,972.27
2022,12,27,05,12,972.30
2022,12,27,05,13,972.23
2022,12,27,05,14,972.20
2022,12,27,05,15,972.23
2022,12,27,05,16,972.23
2022,12,27,05,17,972.27
2022,12,27,05,18,972.30
2022,12,27,05,19,972.33
2022,12,27,05,20,972.30
2022,12,27,05,21,972.44
2022,12,27,05,22,972.33
2022,12,27,05,23,972.40
2022,12,27,05,24,972.27
2022,12,27,05,25,972.30
2022,12,27,05,26,972.23
2022,12,27,05,27,972.20
2022,12,27,05,28,972.13
2022,12,27,05,29,972.10
2022,12,27,05,30,972.03
2022,12,27,05,31,972.00
2022,12,27,05,32,971.86
2022,12,27,05,33,971.83
2022,12,27,05,34,971.79
2022,12,27,05,35,971.69
2022,12,27,05,36,971.69
2022,12,27,05,37,971.62
2022,12,27,05,38,971.66
2022,12,27,05,39,971.59
2022,12,27,05,40,971.52
2022,12,27,05,41,971.52
2022,12,27,05,42,971.45
2022,12,27,05,43,971.39
2022,12,27,05,44,971.32
2022,12,27,05,45,971.25
2022,12,27,05,46,971.15
2022,12,27,05,47,971.18
2022,12,27,05,48,971.32
2022,12,27,05,49,971.35
2022,12,27,05,50,971.32
2022,12,27,05,51,971.42
2022,12,27,05,52,971.39
2022,12,27,05,53,971.56
2022,12,27,05,54,971.56
2022,12,27,05,55,971.66
2022,12,27,05,56,971.66
2022,12,27,05,57,971.72
2022,12,27,05,58,971.69
2022,12,27,05,59,971.56
2022,12,27,06,00,971.52
2022,12,27,06,01,971.49
2022,12,27,06,02,971.42
2022,12,27,06,03,971.39
2022,12,27,06,04,971.35
2022,12,27,06,05,971.42
2022,12,27,06,06,971.39
2022,12,27,06,07,971.42
2022,12,27,06,08,971.32
2022,12,27,06,09,971.32
2022,12,27,06,10,971.28
2022,12,27,06,11,971.25
2022,12,27,06,12,971.32
2022,12,27,06,13,971.35
2022,12,27,06,14,971.39
2022,12,27,06,15,971.35
2022,12,27,06,16,971.42
2022,12,27,06,17,971.32
2022,12,27,06,18,971.32
2022,12,27,06,19,971.35
2022,12,27,06,20,971.32
2022,12,27,06,21,971.35
2022,12,27,06,22,971.49
2022,12,27,06,23,971.56
2022,12,27,06,24,971.59
2022,12,27,06,25,971.59
2022,12,27,06,26,971.66
2022,12,27,06,27,971.69
2022,12,27,06,28,971.62
2022,12,27,06,29,971.56
2022,12,27,06,30,971.59
2022,12,27,06,31,971.46
2022,12,27,06,32,971.49
2022,12,27,06,33,971.42
2022,12,27,06,34,971.39
2022,12,27,06,35,971.39
2022,12,27,06,36,971.42
2022,12,27,06,37,971.45
2022,12,27,06,38,971.39
2022,12,27,06,39,971.39
2022,12,27,06,40,971.39
2022,12,27,06,41,971.39
2022,12,27,06,42,971.39
2022,12,27,06,43,971.32
2022,12,27,06,44,971.35
2022,12,27,06,45,971.45
2022,12,27,06,46,971.39
2022,12,27,06,47,971.45
2022,12,27,06,48,971.49
2022,12,27,06,49,971.49
2022,12,27,06,50,971.49
2022,12,27,06,51,971.52
2022,12,27,06,52,971.59
2022,12,27,06,53,971.66
2022,12,27,06,54,971.59
2022,12,27,06,55,971.59
2022,12,27,06,56,971.56
2022,12,27,06,57,971.59
2022,12,27,06,58,971.56
2022,12,27,06,59,971.52
2022,12,27,07,00,971.59
2022,12,27,07,01,971.59
2022,12,27,07,02,971.56
2022,12,27,07,03,971.56
2022,12,27,07,04,971.49
2022,12,27,07,05,971.49
2022,12,27,07,06,971.49
2022,12,27,07,07,971.42
2022,12,27,07,08,971.42
2022,12,27,07,09,971.45
2022,12,27,07,10,971.52
2022,12,27,07,11,971.62
2022,12,27,07,12,971.49
2022,12,27,07,13,971.49
2022,12,27,07,14,971.52
2022,12,27,07,15,971.56
2022,12,27,07,16,971.49
2022,12,27,07,17,971.45
2022,12,27,07,18,971.42
2022,12,27,07,19,971.42
2022,12,27,07,20,971.35
2022,12,27,07,21,971.32
2022,12,27,07,22,971.32
2022,12,27,07,23,971.28
2022,12,27,07,24,971.25
2022,12,27,07,25,971.28
2022,12,27,07,26,971.25
2022,12,27,07,27,971.22
2022,12,27,07,28,971.18
2022,12,27,07,29,971.28
2022,12,27,07,30,971.32
2022,12,27,07,31,971.28
2022,12,27,07,32,971.25
2022,12,27,07,33,971.25
2022,12,27,07,34,971.25
2022,12,27,07,35,971.22
2022,12,27,07,36,971.25
2022,12,27,07,37,971.25
2022,12,27,07,38,971.32
2022,12,27,07,39,971.35
2022,12,27,07,40,971.25
2022,12,27,07,41,971.15
2022,12,27,07,42,971.15
2022,12,27,07,43,971.25
2022,12,27,07,44,971.25
2022,12,27,07,45,971.22
2022,12,27,07,46,971.12
2022,12,27,07,47,970.98
2022,12,27,07,48,970.91
2022,12,27,07,49,970.91
2022,12,27,07,50,970.91
2022,12,27,07,51,970.98
2022,12,27,07,52,970.98
2022,12,27,07,53,970.98
2022,12,27,07,54,970.91
2022,12,27,07,55,970.91
2022,12,27,07,56,970.81
2022,12,27,07,57,970.78
2022,12,27,07,58,970.84
2022,12,27,07,59,970.84
2022,12,27,08,00,971.01
2022,12,27,08,01,971.05
2022,12,27,08,02,971.08
2022,12,27,08,03,971.05
2022,12,27,08,04,971.05
2022,12,27,08,05,971.12
2022,12,27,08,06,971.12
2022,12,27,08,07,971.12
2022,12,27,08,08,971.08
2022,12,27,08,09,971.12
2022,12,27,08,10,971.22
2022,12,27,08,11,971.25
2022,12,27,08,12,971.25
2022,12,27,08,13,971.28
2022,12,27,08,14,971.25
2022,12,27,08,15,971.28
2022,12,27,08,16,971.32
2022,12,27,08,17,971.42
2022,12,27,08,18,971.45
2022,12,27,08,19,971.45
2022,12,27,08,20,971.42
2022,12,27,08,21,971.45
2022,12,27,08,22,971.45
2022,12,27,08,23,971.56
2022,12,27,08,24,971.69
2022,12,27,08,25,971.72
2022,12,27,08,26,971.72
2022,12,27,08,27,971.69
2022,12,27,08,28,971.66
2022,12,27,08,29,971.62
2022,12,27,08,30,971.62
2022,12,27,08,31,971.69
2022,12,27,08,32,971.66
2022,12,27,08,33,971.66
2022,12,27,08,34,971.62
2022,12,27,08,35,971.72
2022,12,27,08,36,971.76
2022,12,27,08,37,971.79
2022,12,27,08,38,971.76
2022,12,27,08,39,971.83
2022,12,27,08,40,971.83
2022,12,27,08,41,971.86
2022,12,27,08,42,971.83
2022,12,27,08,43,971.89
2022,12,27,08,44,971.89
2022,12,27,08,45,971.96
2022,12,27,08,46,972.00
2022,12,27,08,47,972.06
2022,12,27,08,48,972.10
2022,12,27,08,49,972.13
2022,12,27,08,50,972.13
2022,12,27,08,51,972.27
2022,12,27,08,52,972.30
2022,12,27,08,53,972.27
2022,12,27,08,54,972.20
2022,12,27,08,55,972.16
2022,12,27,08,56,972.10
2022,12,27,08,57,972.10
2022,12,27,08,58,972.10
2022,12,27,08,59,972.03
2022,12,27,09,00,972.00
2022,12,27,09,01,972.06
2022,12,27,09,02,972.10
2022,12,27,09,03,972.06
2022,12,27,09,04,972.19
2022,12,27,09,05,972.23
2022,12,27,09,06,972.37
2022,12,27,09,07,972.40
2022,12,27,09,08,972.44
2022,12,27,09,09,972.47
2022,12,27,09,10,972.44
2022,12,27,09,11,972.44
2022,12,27,09,12,972.50
2022,12,27,09,13,972.47
2022,12,27,09,14,972.50
2022,12,27,09,15,972.44
2022,12,27,09,16,972.50
2022,12,27,09,17,972.61
2022,12,27,09,18,972.64
2022,12,27,09,19,972.61
2022,12,27,09,20,972.61
2022,12,27,09,21,972.67
2022,12,27,09,22,972.58
2022,12,27,09,23,972.64
2022,12,27,09,24,972.67
2022,12,27,09,25,972.64
2022,12,27,09,26,972.64
2022,12,27,09,27,972.71
2022,12,27,09,28,972.71
2022,12,27,09,29,972.71
2022,12,27,09,30,972.67
2022,12,27,09,31,972.74
2022,12,27,09,32,972.64
2022,12,27,09,33,972.64
2022,12,27,09,34,972.67
2022,12,27,09,35,972.74
2022,12,27,09,36,972.74
2022,12,27,09,37,972.81
2022,12,27,09,38,972.81
2022,12,27,09,39,972.77
2022,12,27,09,40,972.84
2022,12,27,09,41,972.74
2022,12,27,09,42,972.77
2022,12,27,09,43,972.77
2022,12,27,09,44,972.77
2022,12,27,09,45,972.77
2022,12,27,09,46,972.81
2022,12,27,09,47,972.84
2022,12,27,09,48,972.81
2022,12,27,09,49,972.84
2022,12,27,09,50,972.84
2022,12,27,09,51,972.84
2022,12,27,09,52,972.81
2022,12,27,09,53,972.81
2022,12,27,09,54,972.84
2022,12,27,09,55,972.84
2022,12,27,09,56,972.84
2022,12,27,09,57,972.88
2022,12,27,09,58,972.88
2022,12,27,09,59,972.88
2022,12,27,10,00,972.88
2022,12,27,10,01,972.94
2022,12,27,10,02,972.98
2022,12,27,10,03,973.01
2022,12,27,10,04,973.01
2022,12,27,10,05,973.08
2022,12,27,10,06,973.05
2022,12,27,10,07,973.08
2022,12,27,10,08,973.08
2022,12,27,10,09,973.08
2022,12,27,10,10,973.08
2022,12,27,10,11,973.11
2022,12,27,10,12,973.11
2022,12,27,10,13,973.15
2022,12,27,10,14,973.18
2022,12,27,10,15,973.15
2022,12,27,10,16,973.18
2022,12,27,10,17,973.21
2022,12,27,10,18,973.25
2022,12,27,10,19,973.25
2022,12,27,10,20,973.21
2022,12,27,10,21,973.28
2022,12,27,10,22,973.28
2022,12,27,10,23,973.32
2022,12,27,10,24,973.35
2022,12,27,10,25,973.35
2022,12,27,10,26,973.35
2022,12,27,10,27,973.38
2022,12,27,10,28,973.35
2022,12,27,10,29,973.35
2022,12,27,10,30,973.32
2022,12,27,10,31,973.38
2022,12,27,10,32,973.38
2022,12,27,10,33,973.38
2022,12,27,10,34,973.42
2022,12,27,10,35,973.42
2022,12,27,10,36,973.45
2022,12,27,10,37,973.45
2022,12,27,10,38,973.42
2022,12,27,10,39,973.35
2022,12,27,10,40,973.35
2022,12,27,10,41,973.38
2022,12,27,10,42,973.35
2022,12,27,10,43,973.38
2022,12,27,10,44,973.45
2022,12,27,10,45,973.52
2022,12,27,10,46,973.59
2022,12,27,10,47,973.52
2022,12,27,10,48,973.55
2022,12,27,10,49,973.59
2022,12,27,10,50,973.62
2022,12,27,10,51,973.62
2022,12,27,10,52,973.62
2022,12,27,10,53,973.59
2022,12,27,10,54,973.55
2022,12,27,10,55,973.62
2022,12,27,10,56,973.69
2022,12,27,10,57,973.65
2022,12,27,10,58,973.65
2022,12,27,10,59,973.65
2022,12,27,11,00,973.76
2022,12,27,11,01,973.72
2022,12,27,11,02,973.69
2022,12,27,11,03,973.76
2022,12,27,11,04,973.79
2022,12,27,11,05,973.69
2022,12,27,11,06,973.72
2022,12,27,11,07,973.79
2022,12,27,11,08,973.82
2022,12,27,11,09,973.93
2022,12,27,11,10,973.89
2022,12,27,11,11,973.96
2022,12,27,11,12,973.99
2022,12,27,11,13,974.03
2022,12,27,11,14,974.03
2022,12,27,11,15,974.03
2022,12,27,11,16,974.03
2022,12,27,11,17,974.06
2022,12,27,11,18,974.06
2022,12,27,11,19,974.10
2022,12,27,11,20,974.10
2022,12,27,11,21,974.13
2022,12,27,11,22,974.03
2022,12,27,11,23,974.10
2022,12,27,11,24,974.03
2022,12,27,11,25,974.06
2022,12,27,11,26,974.13
2022,12,27,11,27,974.13
2022,12,27,11,28,974.10
2022,12,27,11,29,974.13
2022,12,27,11,30,974.16
2022,12,27,11,31,974.13
2022,12,27,11,32,974.16
2022,12,27,11,33,974.20
2022,12,27,11,34,974.13
2022,12,27,11,35,974.16
2022,12,27,11,36,974.16
2022,12,27,11,37,974.20
2022,12,27,11,38,974.13
2022,12,27,11,39,974.16
2022,12,27,11,40,974.20
2022,12,27,11,41,974.20
2022,12,27,11,42,974.20
2022,12,27,11,43,974.20
2022,12,27,11,44,974.26
2022,12,27,11,45,974.26
2022,12,27,11,46,974.23
2022,12,27,11,47,974.26
2022,12,27,11,48,974.26
2022,12,27,11,49,974.23
2022,12,27,11,50,974.23
2022,12,27,11,51,974.23
2022,12,27,11,52,974.30
2022,12,27,11,53,974.30
2022,12,27,11,54,974.33
2022,12,27,11,55,974.30
2022,12,27,11,56,974.33
2022,12,27,11,57,974.33
2022,12,27,11,58,974.37
2022,12,27,11,59,974.40
2022,12,27,12,00,974.40
2022,12,27,12,01,974.40
2022,12,27,12,02,974.40
2022,12,27,12,03,974.40
2022,12,27,12,04,974.37
2022,12,27,12,05,974.40
2022,12,27,12,06,974.40
2022,12,27,12,07,974.40
2022,12,27,12,08,974.43
2022,12,27,12,09,974.43
2022,12,27,12,10,974.33
2022,12,27,12,11,974.37
2022,12,27,12,12,974.40
2022,12,27,12,13,974.50
2022,12,27,12,14,974.60
2022,12,27,12,15,974.64
2022,12,27,12,16,974.64
2022,12,27,12,17,974.67
2022,12,27,12,18,974.74
2022,12,27,12,19,974.70
2022,12,27,12,20,974.70
2022,12,27,12,21,974.74
2022,12,27,12,22,974.74
2022,12,27,12,23,974.81
2022,12,27,12,24,974.87
2022,12,27,12,25,974.77
2022,12,27,12,26,974.81
2022,12,27,12,27,974.84
2022,12,27,12,28,974.84
2022,12,27,12,29,974.77
2022,12,27,12,30,974.91
2022,12,27,12,31,974.84
2022,12,27,12,32,974.81
2022,12,27,12,33,974.81
2022,12,27,12,34,974.94
2022,12,27,12,35,974.94
2022,12,27,12,36,974.98
2022,12,27,12,37,975.04
2022,12,27,12,38,975.04
2022,12,27,12,39,975.11
2022,12,27,12,40,975.11
2022,12,27,12,41,975.18
2022,12,27,12,42,975.11
2022,12,27,12,43,975.21
2022,12,27,12,44,975.14
2022,12,27,12,45,975.18
2022,12,27,12,46,975.14
2022,12,27,12,47,975.25
2022,12,27,12,48,975.25
2022,12,27,12,49,975.28
2022,12,27,12,50,975.25
2022,12,27,12,51,975.21
2022,12,27,12,52,975.25
2022,12,27,12,53,975.28
2022,12,27,12,54,975.31
2022,12,27,12,55,975.31
2022,12,27,12,56,975.38
2022,12,27,12,57,975.31
2022,12,27,12,58,975.38
2022,12,27,12,59,975.42
2022,12,27,13,00,975.52
2022,12,27,13,01,975.55
2022,12,27,13,02,975.55
2022,12,27,13,03,975.55
2022,12,27,13,04,975.55
2022,12,27,13,05,975.62
2022,12,27,13,06,975.62
2022,12,27,13,07,975.62
2022,12,27,13,08,975.65
2022,12,27,13,09,975.62
2022,12,27,13,10,975.59
2022,12,27,13,11,975.62
2022,12,27,13,12,975.65
2022,12,27,13,13,975.62
2022,12,27,13,14,975.65
2022,12,27,13,15,975.69
2022,12,27,13,16,975.65
2022,12,27,13,17,975.65
2022,12,27,13,18,975.72
2022,12,27,13,19,975.72
2022,12,27,13,20,975.69
2022,12,27,13,21,975.69
2022,12,27,13,22,975.69
2022,12,27,13,23,975.75
2022,12,27,13,24,975.75
2022,12,27,13,25,975.75
2022,12,27,13,26,975.75
2022,12,27,13,27,975.75
2022,12,27,13,28,975.75
2022,12,27,13,29,975.75
2022,12,27,13,30,975.82
2022,12,27,13,31,975.92
2022,12,27,13,32,976.03
2022,12,27,13,33,976.03
2022,12,27,13,34,976.09
2022,12,27,13,35,976.16
2022,12,27,13,36,976.06
2022,12,27,13,37,976.06
2022,12,27,13,38,976.13
2022,12,27,13,39,976.16
2022,12,27,13,40,976.19
2022,12,27,13,41,976.19
2022,12,27,13,42,976.23
2022,12,27,13,43,976.23
2022,12,27,13,44,976.23
2022,12,27,13,45,976.26
2022,12,27,13,46,976.30
2022,12,27,13,47,976.30
2022,12,27,13,48,976.26
2022,12,27,13,49,976.33
2022,12,27,13,50,976.30
2022,12,27,13,51,976.33
2022,12,27,13,52,976.36
2022,12,27,13,53,976.43
2022,12,27,13,54,976.40
2022,12,27,13,55,976.40
2022,12,27,13,56,976.47
2022,12,27,13,57,976.47
2022,12,27,13,58,976.47
2022,12,27,13,59,976.53
2022,12,27,14,00,976.50
2022,12,27,14,01,976.59
2022,12,27,14,02,976.60
2022,12,27,14,03,976.63
2022,12,27,14,04,976.63
2022,12,27,14,05,976.77
2022,12,27,14,06,976.77
2022,12,27,14,07,976.70
2022,12,27,14,08,976.80
2022,12,27,14,09,976.84
2022,12,27,14,10,976.97
2022,12,27,14,11,976.94
2022,12,27,14,12,976.94
2022,12,27,14,13,977.01
2022,12,27,14,14,977.08
2022,12,27,14,15,977.11
2022,12,27,14,16,977.18
2022,12,27,14,17,977.18
2022,12,27,14,18,977.24
2022,12,27,14,19,977.24
2022,12,27,14,20,977.24
2022,12,27,14,21,977.31
2022,12,27,14,22,977.31
2022,12,27,14,23,977.35
2022,12,27,14,24,977.41
2022,12,27,14,25,977.41
2022,12,27,14,26,977.45
2022,12,27,14,27,977.48
2022,12,27,14,28,977.52
2022,12,27,14,29,977.58
2022,12,27,14,30,977.58
2022,12,27,14,31,977.58
2022,12,27,14,32,977.62
2022,12,27,14,33,977.62
2022,12,27,14,34,977.65
2022,12,27,14,35,977.65
2022,12,27,14,36,977.68
2022,12,27,14,37,977.72
2022,12,27,14,38,977.72
2022,12,27,14,39,977.72
2022,12,27,14,40,977.75
2022,12,27,14,41,977.82
2022,12,27,14,42,977.89
2022,12,27,14,43,977.96
2022,12,27,14,44,977.99
2022,12,27,14,45,978.02
2022,12,27,14,46,977.99
2022,12,27,14,47,978.12
2022,12,27,14,48,978.16
2022,12,27,14,49,978.26
2022,12,27,14,50,978.23
2022,12,27,14,51,978.33
2022,12,27,14,52,978.36
2022,12,27,14,53,978.40
2022,12,27,14,54,978.43
2022,12,27,14,55,978.46
2022,12,27,14,56,978.50
2022,12,27,14,57,978.53
2022,12,27,14,58,978.50
2022,12,27,14,59,978.50
2022,12,27,15,00,978.60
2022,12,27,15,01,978.57
2022,12,27,15,02,978.60
2022,12,27,15,03,978.60
2022,12,27,15,04,978.67
2022,12,27,15,05,978.67
2022,12,27,15,06,978.73
2022,12,27,15,07,978.80
2022,12,27,15,08,978.77
2022,12,27,15,09,978.77
2022,12,27,15,10,978.80
2022,12,27,15,11,978.89
2022,12,27,15,12,978.90
2022,12,27,15,13,978.97
2022,12,27,15,14,978.97
2022,12,27,15,15,979.04
2022,12,27,15,16,979.07
2022,12,27,15,17,979.14
2022,12,27,15,18,979.14
2022,12,27,15,19,979.21
2022,12,27,15,20,979.24
2022,12,27,15,21,979.28
2022,12,27,15,22,979.34
2022,12,27,15,23,979.31
2022,12,27,15,24,979.38
2022,12,27,15,25,979.34
2022,12,27,15,26,979.31
2022,12,27,15,27,979.41
2022,12,27,15,28,979.41
2022,12,27,15,29,979.48
2022,12,27,15,30,979.55
2022,12,27,15,31,979.55
2022,12,27,15,32,979.55
2022,12,27,15,33,979.58
2022,12,27,15,34,979.65
2022,12,27,15,35,979.65
2022,12,27,15,36,979.68
2022,12,27,15,37,979.75
2022,12,27,15,38,979.75
2022,12,27,15,39,979.78
2022,12,27,15,40,979.78
2022,12,27,15,41,979.82
2022,12,27,15,42,979.85
2022,12,27,15,43,979.89
2022,12,27,15,44,979.92
2022,12,27,15,45,979.95
2022,12,27,15,46,979.95
2022,12,27,15,47,979.99
2022,12,27,15,48,980.06
2022,12,27,15,49,980.09
2022,12,27,15,50,980.16
2022,12,27,15,51,980.19
2022,12,27,15,52,980.26
2022,12,27,15,53,980.33
2022,12,27,15,54,980.36
2022,12,27,15,55,980.39
2022,12,27,15,56,980.46
2022,12,27,15,57,980.46
2022,12,27,15,58,980.50
2022,12,27,15,59,980.46
2022,12,27,16,00,980.50
2022,12,27,16,01,980.53
2022,12,27,16,02,980.56
2022,12,27,16,03,980.66
2022,12,27,16,04,980.73
2022,12,27,16,05,980.73
2022,12,27,16,06,980.73
2022,12,27,16,07,980.83
2022,12,27,16,08,980.83
2022,12,27,16,09,980.83
2022,12,27,16,10,980.87
2022,12,27,16,11,980.90
2022,12,27,16,12,980.94
2022,12,27,16,13,980.97
2022,12,27,16,14,981.04
2022,12,27,16,15,981.00
2022,12,27,16,16,981.04
2022,12,27,16,17,981.00
2022,12,27,16,18,981.04
2022,12,27,16,19,981.04
2022,12,27,16,20,981.04
2022,12,27,16,21,981.07
2022,12,27,16,22,981.07
2022,12,27,16,23,981.10
2022,12,27,16,24,981.10
2022,12,27,16,25,981.10
2022,12,27,16,26,981.20
2022,12,27,16,27,981.24
2022,12,27,16,28,981.24
2022,12,27,16,29,981.34
2022,12,27,16,30,981.34
2022,12,27,16,31,981.38
2022,12,27,16,32,981.44
2022,12,27,16,33,981.51
2022,12,27,16,34,981.55
2022,12,27,16,35,981.61
2022,12,27,16,36,981.65